Lahr, Germany

1:19 AM CET on November 21, 2019 (GMT +0100)
Lahr

Weather History for EDTL - September, 2019

Change the Weather History Date:

Tuesday, September 24, 2019

  Actual Average (LFST) Record (LFST)
Temperature  
Mean Temperature 56 °F -  
Max Temperature 62 °F 66 °F 78 °F (1999)
Min Temperature 50 °F 48 °F 40 °F (2014)
Degree Days  
Heating Degree Days 9    
Growing Degree Days 6 (Base 50)    
Moisture  
Dew Point 53 °F    
Average Humidity 82    
Maximum Humidity 100    
Minimum Humidity 65    
Precipitation  
Precipitation 0.00 in - - ()
Sea Level Pressure  
Sea Level Pressure 29.92 in    
Wind  
Wind Speed 4 mph ()    
Max Wind Speed 9 mph    
Max Gust Speed -    
Visibility 10.0 miles    
Events Rain    
Averages and records for this station are not official NWS values.
T = Trace of Precipitation, MM = Missing Value Source: Averaged Metar Reports

Daily Weather History Graph

Daily Weather History Graph

Search for Another Location

Airport or City:

Astronomy

Sep. 24, 2019 Rise Set
Actual Time 7:17 AM CEST 7:23 PM CEST
Civil Twilight 6:46 AM CEST 7:54 PM CEST
Nautical Twilight 6:09 AM CEST 8:31 PM CEST
Astronomical Twilight 5:31 AM CEST 9:08 PM CEST
Moon 1:14 AM CEST (9/24) 5:23 PM CEST (9/24)
Length of Visible Light 13h 08m
Length of Day
12h 05m
Waning Crescent, 25% of the Moon is Illuminated
Sep 24
Waning Crescent
Sep 28
New
Oct 5
First Quarter
Oct 13
Full
Oct 21
Last Quarter

Hourly Weather History & Observations

Time (CEST) Temp. Dew Point Humidity Pressure Visibility Wind Dir Wind Speed Gust Speed Precip Events Conditions
12:00 AM 54 °F 51 °F 85% 30.08 in 34 mi SSE 2.2 mph - -  
1:00 AM 52 °F 50 °F 91% 30.07 in 28 mi ESE 2.2 mph - -  
3:00 AM 53 °F 51 °F 92% 30.07 in 34 mi South 2.2 mph - -   Overcast
4:00 AM 52 °F 50 °F 89% 30.05 in 44 mi SW 4.5 mph - -  
6:20 AM 50.0 °F 48.2 °F 94% 30.01 in - SSW 4.6 mph - N/A   Clear
6:50 AM 50.0 °F 50.0 °F 100% 30.01 in - SSE 4.6 mph - N/A   Clear
7:00 AM 50 °F 49 °F 93% 30.02 in 16 mi SSE 4.5 mph - -  
7:20 AM 50.0 °F 46.4 °F 87% 29.98 in - Variable 3.5 mph - N/A   Clear
7:50 AM 51.8 °F 50.0 °F 94% 30.01 in - SE 8.1 mph - N/A   Clear
8:20 AM 53.6 °F 50.0 °F 88% 29.98 in - SE 6.9 mph - N/A   Clear
8:50 AM 53.6 °F 51.8 °F 94% 29.98 in - Variable 3.5 mph - N/A   Clear
9:20 AM 55.4 °F 50.0 °F 82% 29.98 in - Variable 4.6 mph - N/A   Clear
9:50 AM 55.4 °F 51.8 °F 88% 29.98 in - SW 4.6 mph - N/A   Clear
10:20 AM 55.4 °F 51.8 °F 88% 29.95 in - SSW 3.5 mph - N/A   Clear
10:50 AM 57.2 °F 51.8 °F 82% 29.95 in - SSW 4.6 mph - N/A   Clear
11:20 AM 57.2 °F 53.6 °F 88% 29.95 in - SSW 4.6 mph - N/A   Clear
11:50 AM 59.0 °F 53.6 °F 82% 29.92 in - Variable 3.5 mph - N/A   Clear
12:00 PM 60 °F 53 °F 70% 29.92 in 25 mi SSE 2.2 mph - -   Overcast
12:20 PM 60.8 °F 51.8 °F 72% 29.89 in - Variable 2.3 mph - N/A   Clear
12:50 PM 60.8 °F 53.6 °F 77% 29.89 in - WSW 3.5 mph - N/A   Clear
1:00 PM 61 °F 52 °F 65% 29.90 in 34 mi West 4.5 mph - -   Overcast
1:20 PM 60.8 °F 53.6 °F 77% 29.89 in - WSW 5.8 mph - N/A   Clear
1:50 PM 59.0 °F 53.6 °F 82% 29.89 in - SW 5.8 mph - N/A   Clear
2:20 PM 60.8 °F 53.6 °F 77% 29.89 in - SW 5.8 mph - N/A   Clear
2:50 PM 60.8 °F 53.6 °F 77% 29.86 in - Variable 2.3 mph - N/A   Clear
3:00 PM 61 °F 53 °F 69% 29.87 in 44 mi SSW 2.2 mph - - Rain Rain
3:20 PM 60.8 °F 53.6 °F 77% 29.86 in - Variable 3.5 mph - N/A   Clear
3:50 PM 62.6 °F 55.4 °F 77% 29.86 in - SSW 3.5 mph - N/A   Clear
4:20 PM 62.6 °F 53.6 °F 72% 29.86 in - SW 3.5 mph - N/A   Clear
4:50 PM 62.6 °F 53.6 °F 72% 29.83 in - SSE 3.5 mph - N/A   Clear
5:20 PM 62.6 °F 55.4 °F 77% 29.83 in - South 5.8 mph - N/A   Clear
5:50 PM 62.6 °F 57.2 °F 82% 29.83 in - South 5.8 mph - N/A   Clear
6:00 PM 62 °F 56 °F 73% 29.83 in 34 mi South 8.9 mph - - Rain Rain
6:20 PM 62.6 °F 55.4 °F 77% 29.83 in 6.2 mi South 6.9 mph - N/A   Light Drizzle
6:50 PM 60.8 °F 53.6 °F 77% 29.83 in 6.2 mi South 5.8 mph - N/A Rain Light Rain
7:00 PM 60 °F 54 °F 76% 29.85 in 19 mi South 6.7 mph - - Rain Light Rain
7:20 PM 59.0 °F 55.4 °F 88% 29.83 in 6.2 mi SSE 5.8 mph - N/A Rain Light Rain
7:50 PM 59.0 °F 55.4 °F 88% 29.83 in 6.2 mi SSE 5.8 mph - N/A   Mostly Cloudy